W8AN Weather Reports


Display with metric or nautical units.
time (UTC)temp
F
wind
direction
speed
MPH
gust
MPH
rain 1hr
in
rain 24hr
in
rain mn
in
humidity
%
barometer
mb
20260510225327 63 332 10.0 11.0 0.00 0.00 0.00 28 4273.4
20260510224824 62 313 6.0 8.0 0.00 0.00 0.00 28 4273.1
20260510224320 62 287 7.0 8.0 0.00 0.00 0.00 28 4273.5
20260510223817 63 279 5.0 7.0 0.00 0.00 0.00 27 4273.2
20260510223314 63 301 9.0 10.0 0.00 0.00 0.00 28 4273.3
20260510222812 62 327 8.0 8.0 0.00 0.00 0.00 29 4273.3
20260510222309 62 330 7.0 8.0 0.00 0.00 0.00 29 4273.1
20260510221804 62 326 5.0 6.0 0.00 0.00 0.00 28 4273.3
20260510221301 62 322 5.0 6.0 0.00 0.00 0.00 32 4273.2
20260510220757 63 307 10.0 11.0 0.00 0.00 0.00 28 4273.1
20260510220253 64 327 7.0 8.0 0.00 0.00 0.00 28 4273.2
20260510215750 64 308 4.0 6.0 0.00 0.00 0.00 28 4273.1
20260510215248 64 336 12.0 15.0 0.00 0.00 0.00 25 4272.9
20260510214744 62 330 6.0 8.0 0.00 0.00 0.00 30 4272.8
20260510214242 62 315 5.0 6.0 0.00 0.00 0.00 29 4272.8
20260510213738 62 311 7.0 8.0 0.00 0.00 0.00 30 4272.9
20260510213235 63 251 11.0 13.0 0.00 0.00 0.00 27 4272.6
20260510212731 64 297 8.0 10.0 0.00 0.00 0.00 27 4272.8
20260510212229 63 300 8.0 10.0 0.00 0.00 0.00 27 4272.7
20260510211725 63 320 11.0 14.0 0.00 0.00 0.00 27 4272.6
20260510211220 63 278 6.0 7.0 0.00 0.00 0.00 29 4272.4
20260510210717 62 329 0.0 1.0 0.00 0.00 0.00 33 4272.4
20260510210212 62 268 8.0 9.0 0.00 0.00 0.00 29 4272.5
20260510205712 63 273 10.0 11.0 0.00 0.00 0.00 29 4272.3
20260510205207 64 333 11.0 13.0 0.00 0.00 0.00 28 4272.3
20260510204703 62 328 7.0 7.0 0.00 0.00 0.00 27 4272.4
20260510204200 62 327 7.0 11.0 0.00 0.00 0.00 29 4272.5
20260510203657 62 326 6.0 7.0 0.00 0.00 0.00 27 4272.3
20260510203154 62 315 5.0 6.0 0.00 0.00 0.00 29 4272.5
20260510202654 63 305 0.0 0.0 0.00 0.00 0.00 25 4272.5
20260510202149 62 289 5.0 6.0 0.00 0.00 0.00 28 4272.6
20260510201647 61 299 1.0 1.0 0.00 0.00 0.00 29 4272.3
20260510201144 62 334 10.0 10.0 0.00 0.00 0.00 29 4272.5
20260510200640 62 330 4.0 6.0 0.00 0.00 0.00 31 4272.9
20260510200138 62 321 3.0 3.0 0.00 0.00 0.00 30 4272.8
20260510195635 61 281 7.0 9.0 0.00 0.00 0.00 34 4272.8
20260510195131 62 345 7.0 10.0 0.00 0.00 0.00 35 4272.8
20260510194630 62 328 3.0 3.0 0.00 0.00 0.00 28 4273.0
20260510194127 63 313 3.0 3.0 0.00 0.00 0.00 27 4272.8
20260510193622 63 334 7.0 7.0 0.00 0.00 0.00 27 4272.8
20260510193118 61 295 4.0 5.0 0.00 0.00 0.00 30 4272.9
20260510192613 62 281 6.0 8.0 0.00 0.00 0.00 28 4272.7
20260510192109 62 283 5.0 6.0 0.00 0.00 0.00 28 4272.9
20260510191606 62 269 4.0 5.0 0.00 0.00 0.00 29 4272.9
20260510191102 61 227 2.0 3.0 0.00 0.00 0.00 31 4273.0
20260510190600 61 326 7.0 7.0 0.00 0.00 0.00 31 4272.7
20260510190057 63 324 7.0 9.0 0.00 0.00 0.00 29 4272.7
20260510185554 63 251 5.0 6.0 0.00 0.00 0.00 30 4273.0
20260510185051 63 337 12.0 14.0 0.00 0.00 0.00 30 4272.8
20260510184549 64 266 4.0 5.0 0.00 0.00 0.00 28 4273.1
20260510184044 63 230 7.0 8.0 0.00 0.00 0.00 32 4273.1
20260510183539 62 309 6.0 7.0 0.00 0.00 0.00 31 4272.9
20260510183034 61 328 8.0 9.0 0.00 0.00 0.00 30 4272.8
20260510182532 61 336 16.0 18.0 0.00 0.00 0.00 31 4272.8
20260510182027 61 316 6.0 8.0 0.00 0.00 0.00 30 4272.8
20260510181525 61 327 1.0 2.0 0.00 0.00 0.00 32 4272.7
20260510181021 62 135 1.0 2.0 0.00 0.00 0.00 32 4272.6
20260510180518 62 313 0.0 0.0 0.00 0.00 0.00 33 4272.6
20260510180016 60 267 6.0 7.0 0.00 0.00 0.00 32 4272.8
20260510175510 61 291 12.0 14.0 0.00 0.00 0.00 32 4272.7
20260510175007 62 330 7.0 9.0 0.00 0.00 0.00 31 4272.5
20260510174505 61 306 8.0 10.0 0.00 0.00 0.00 31 4272.7
20260510174001 62 334 7.0 8.0 0.00 0.00 0.00 30 4272.5
20260510173457 62 249 2.0 6.0 0.00 0.00 0.00 30 4272.5
20260510172954 61 333 3.0 5.0 0.00 0.00 0.00 34 4272.5
20260510172449 61 332 8.0 9.0 0.00 0.00 0.00 31 4272.7
20260510171946 62 150 1.0 2.0 0.00 0.00 0.00 36 4272.8
20260510171443 60 317 6.0 8.0 0.00 0.00 0.00 30 4272.6
20260510170939 60 310 0.0 0.0 0.00 0.00 0.00 29 4272.6
20260510170436 60 329 3.0 7.0 0.00 0.00 0.00 32 4272.6
20260510165932 60 339 9.0 13.0 0.00 0.00 0.00 32 4272.9
20260510165428 62 344 11.0 13.0 0.00 0.00 0.00 33 4272.7
20260510164925 60 326 1.0 3.0 0.00 0.00 0.00 34 4272.7
20260510164423 59 272 0.0 1.0 0.00 0.00 0.00 35 4272.9
20260510163923 59 310 4.0 5.0 0.00 0.00 0.00 33 4273.0
20260510163419 59 330 5.0 7.0 0.00 0.00 0.00 34 4273.0
20260510162913 59 332 12.0 14.0 0.00 0.00 0.00 34 4272.8
20260510162411 59 338 13.0 16.0 0.00 0.00 0.00 35 4272.9
20260510161907 59 346 8.0 9.0 0.00 0.00 0.00 35 4272.8
20260510161403 60 331 11.0 15.0 0.00 0.00 0.00 37 4272.5
20260510160900 60 320 4.0 7.0 0.00 0.00 0.00 34 4272.6
20260510160357 60 322 1.0 3.0 0.00 0.00 0.00 38 4272.9
20260510155856 60 1 3.0 5.0 0.00 0.00 0.00 42 4272.7
20260510155353 59 319 3.0 5.0 0.00 0.00 0.00 39 4272.7
20260510154849 58 267 1.0 1.0 0.00 0.00 0.00 37 4272.7
20260510154346 59 316 4.0 5.0 0.00 0.00 0.00 43 4272.5
20260510153839 58 333 0.0 0.0 0.00 0.00 0.00 38 4272.7
20260510153336 58 318 3.0 6.0 0.00 0.00 0.00 45 4272.5
20260510152832 57 337 6.0 8.0 0.00 0.00 0.00 43 4272.3
20260510152330 59 55 5.0 6.0 0.00 0.00 0.00 47 4272.1
20260510151826 58 347 1.0 2.0 0.00 0.00 0.00 45 4272.1
20260510151324 58 328 9.0 9.0 0.00 0.00 0.00 47 4272.2
20260510150820 58 59 3.0 5.0 0.00 0.00 0.00 44 4272.3
20260510150315 56 331 5.0 6.0 0.00 0.00 0.00 51 4272.2
20260510145812 57 339 10.0 10.0 0.00 0.00 0.00 47 4272.1
20260510145308 57 331 12.0 14.0 0.00 0.00 0.00 48 4271.9
20260510144805 58 287 10.0 11.0 0.00 0.00 0.00 44 4272.1
20260510144302 58 108 5.0 6.0 0.00 0.00 0.00 47 4272.3
20260510143801 56 329 4.0 5.0 0.00 0.00 0.00 49 4272.1
20260510143258 57 30 3.0 5.0 0.00 0.00 0.00 49 4272.1
20260510142754 56 335 5.0 6.0 0.00 0.00 0.00 50 4272.0
20260510142251 57 354 2.0 2.0 0.00 0.00 0.00 50 4271.7
20260510141748 58 61 2.0 3.0 0.00 0.00 0.00 48 4271.7
20260510141246 56 0 1.0 2.0 0.00 0.00 0.00 54 4271.6
20260510140743 56 325 1.0 2.0 0.00 0.00 0.00 54 4271.9
20260510140238 57 347 2.0 2.0 0.00 0.00 0.00 56 4271.9
20260510135732 56 309 4.0 6.0 0.00 0.00 0.00 57 4271.9
20260510135228 56 73 1.0 1.0 0.00 0.00 0.00 53 4272.0
20260510134726 56 95 3.0 5.0 0.00 0.00 0.00 55 4271.7
20260510134223 55 70 0.0 0.0 0.00 0.00 0.00 57 4271.6
20260510133718 55 23 0.0 1.0 0.00 0.00 0.00 57 4271.6
20260510133214 56 24 0.0 1.0 0.00 0.00 0.00 58 4271.7
20260510132710 55 5 1.0 2.0 0.00 0.00 0.00 58 4271.7
20260510132208 54 15 1.0 2.0 0.00 0.00 0.00 58 4271.4
20260510131705 54 35 3.0 5.0 0.00 0.00 0.00 59 4271.7
20260510131203 54 40 2.0 2.0 0.00 0.00 0.00 61 4271.5
20260510130653 53 40 1.0 2.0 0.00 0.00 0.00 61 4271.3
20260510130150 52 9 3.0 3.0 0.00 0.00 0.00 65 4271.4
20260510125647 52 30 3.0 3.0 0.00 0.00 0.00 66 4271.4
20260510125143 51 43 4.0 5.0 0.00 0.00 0.00 68 4271.5
20260510124640 52 63 4.0 6.0 0.00 0.00 0.00 69 4271.3
20260510124137 51 37 4.0 6.0 0.00 0.00 0.00 69 4271.2
20260510123632 51 7 4.0 6.0 0.00 0.00 0.00 70 4271.3
20260510123129 51 39 6.0 7.0 0.00 0.00 0.00 71 4271.4
20260510122625 51 353 3.0 5.0 0.00 0.00 0.00 72 4271.2
20260510122121 50 7 5.0 6.0 0.00 0.00 0.00 73 4270.9
20260510121618 50 340 3.0 3.0 0.00 0.00 0.00 73 4271.1
20260510121115 50 2 4.0 6.0 0.00 0.00 0.00 73 4270.7
20260510120613 50 53 3.0 5.0 0.00 0.00 0.00 75 4270.6
20260510120108 50 13 4.0 5.0 0.00 0.00 0.00 74 4270.9
20260510115605 50 34 4.0 5.0 0.00 0.00 0.00 75 4270.6
20260510115103 49 72 3.0 5.0 0.00 0.00 0.00 77 4270.8
20260510114558 49 0 3.0 3.0 0.00 0.00 0.00 77 4270.4
20260510114054 49 346 3.0 3.0 0.00 0.00 0.00 77 4270.2
20260510113549 49 42 2.0 5.0 0.00 0.00 0.00 76 4270.0
20260510113047 48 328 5.0 6.0 0.00 0.00 0.00 76 4269.9
20260510112543 48 306 5.0 6.0 0.00 0.00 0.00 76 4269.8
20260510112040 48 312 9.0 10.0 0.00 0.00 0.00 75 4269.5
20260510111537 47 332 9.0 10.0 0.00 0.00 0.00 74 4269.9
20260510111033 47 335 13.0 18.0 0.00 0.00 0.00 74 4269.7
20260510110529 48 319 9.0 10.0 0.00 0.00 0.00 74 4269.5
20260510110026 48 339 16.0 17.0 0.00 0.00 0.00 74 4269.6
20260510105520 48 318 11.0 14.0 0.00 0.00 0.00 74 4269.4
20260510105016 48 323 17.0 22.0 0.00 0.00 0.00 75 4269.1
20260510104513 49 343 11.0 13.0 0.00 0.00 0.00 75 4269.3
20260510104009 49 310 9.0 11.0 0.00 0.00 0.00 75 4269.2
20260510103506 49 305 6.0 9.0 0.00 0.00 0.00 76 4269.0
20260510103002 49 338 8.0 8.0 0.00 0.00 0.00 80 4268.9
20260510102458 49 335 9.0 10.0 0.00 0.00 0.00 80 4268.8
20260510101954 49 327 0.0 0.0 0.00 0.00 0.00 80 4268.7
20260510101452 49 331 0.0 0.0 0.00 0.00 0.00 80 4268.6
20260510100951 49 329 0.0 0.0 0.00 0.00 0.00 80 4268.7
20260510100446 49 329 0.0 0.0 0.00 0.00 0.00 80 4268.4
20260510095943 49 330 0.0 0.0 0.00 0.00 0.00 79 4268.2
20260510095439 50 327 0.0 0.0 0.00 0.00 0.00 79 4268.4
20260510094938 50 328 0.0 0.0 0.00 0.00 0.00 78 4268.0
20260510094433 50 329 0.0 0.0 0.00 0.00 0.00 76 4267.8
20260510093929 50 329 0.0 0.0 0.00 0.00 0.00 75 4267.8
20260510093424 50 329 0.0 0.0 0.00 0.00 0.00 74 4267.7
20260510092922 50 329 0.0 0.0 0.00 0.00 0.00 74 4267.7
20260510092419 50 329 0.0 0.0 0.00 0.00 0.00 75 4267.5
20260510091918 50 329 0.0 0.0 0.00 0.00 0.00 76 4267.4
20260510091416 49 329 0.0 0.0 0.00 0.00 0.00 76 4267.4
20260510090912 49 329 0.0 0.0 0.00 0.00 0.00 76 4267.3
20260510090409 49 329 0.0 0.0 0.00 0.00 0.00 77 4267.3
20260510085905 50 329 0.0 0.0 0.00 0.00 0.00 77 4267.4
20260510085400 50 329 0.0 0.0 0.00 0.00 0.00 76 4267.1
20260510084855 50 329 0.0 0.0 0.00 0.00 0.00 74 4267.1
20260510084353 50 329 0.0 0.0 0.00 0.00 0.00 75 4267.1
20260510083850 50 330 0.0 0.0 0.00 0.00 0.00 73 4267.2
20260510083346 50 331 0.0 0.0 0.00 0.00 0.00 73 4266.9
20260510082842 51 332 0.0 0.0 0.00 0.00 0.00 71 4266.9
20260510082339 51 336 0.0 0.0 0.00 0.00 0.00 69 4266.9
20260510081838 51 343 0.0 0.0 0.00 0.00 0.00 69 4266.9
20260510081334 50 19 2.0 3.0 0.00 0.00 0.00 69 4266.9
20260510080831 50 33 2.0 2.0 0.00 0.00 0.00 72 4266.9
20260510080325 50 321 0.0 0.0 0.00 0.00 0.00 72 4266.8
20260510075823 51 321 0.0 0.0 0.00 0.00 0.00 74 4266.5
20260510075320 51 321 0.0 0.0 0.00 0.00 0.00 75 4266.4
20260510074816 50 321 0.0 0.0 0.00 0.00 0.00 71 4266.4
20260510074314 50 321 0.0 0.0 0.00 0.00 0.00 71 4266.3
20260510073810 50 322 0.0 0.0 0.00 0.00 0.00 70 4266.3
20260510073306 50 323 0.0 0.0 0.00 0.00 0.00 68 4266.2
20260510072802 50 323 0.0 0.0 0.00 0.00 0.00 69 4266.1
20260510072259 50 323 0.0 0.0 0.00 0.00 0.00 69 4266.2
20260510071755 50 323 0.0 0.0 0.00 0.00 0.00 69 4266.1
20260510071251 50 323 0.0 1.0 0.00 0.00 0.00 71 4266.0
20260510070751 50 325 0.0 0.0 0.00 0.00 0.00 72 4265.9
20260510070247 51 326 0.0 0.0 0.00 0.00 0.00 72 4266.0
20260510065747 52 329 0.0 0.0 0.00 0.00 0.00 66 4265.9
20260510065244 52 334 3.0 3.0 0.00 0.00 0.00 65 4265.8
20260510064740 52 336 3.0 3.0 0.00 0.00 0.00 64 4265.7
20260510064238 51 335 5.0 5.0 0.00 0.00 0.00 68 4265.6
20260510063734 51 340 5.0 6.0 0.00 0.00 0.00 66 4265.6
20260510063231 52 337 6.0 6.0 0.00 0.00 0.00 65 4265.4
20260510062727 52 332 5.0 5.0 0.00 0.00 0.00 64 4265.4
20260510062223 53 336 5.0 6.0 0.00 0.00 0.00 62 4265.1
20260510061719 53 337 5.0 5.0 0.00 0.00 0.00 64 4265.4
20260510061216 53 338 6.0 7.0 0.00 0.00 0.00 62 4265.1
20260510060712 51 329 4.0 6.0 0.00 0.00 0.00 69 4265.3
20260510060209 53 324 3.0 5.0 0.00 0.00 0.00 68 4265.1
20260510055706 52 331 5.0 5.0 0.00 0.00 0.00 66 4265.0
20260510055204 52 333 5.0 6.0 0.00 0.00 0.00 68 4265.0
20260510054659 53 336 6.0 6.0 0.00 0.00 0.00 66 4264.9
20260510054155 54 341 1.0 2.0 0.00 0.00 0.00 63 4264.6
20260510053654 54 332 0.0 0.0 0.00 0.00 0.00 63 4264.9
20260510053151 54 333 4.0 5.0 0.00 0.00 0.00 64 4264.6
20260510052646 54 333 4.0 5.0 0.00 0.00 0.00 64 4264.8
20260510052143 53 331 3.0 3.0 0.00 0.00 0.00 65 4264.7
20260510051639 54 324 7.0 8.0 0.00 0.00 0.00 65 4264.7
20260510051135 55 327 7.0 8.0 0.00 0.00 0.00 63 4264.5
20260510050633 55 329 5.0 6.0 0.00 0.00 0.00 62 4264.6
20260510050130 56 329 5.0 6.0 0.00 0.00 0.00 61 4264.5
20260510045627 56 324 5.0 6.0 0.00 0.00 0.00 62 4264.4
20260510045123 56 324 5.0 6.0 0.00 0.00 0.00 65 4264.2
20260510044619 56 349 6.0 7.0 0.00 0.00 0.00 67 4264.3
20260510044116 55 325 6.0 7.0 0.00 0.00 0.00 72 4263.9
20260510043612 55 336 6.0 6.0 0.00 0.00 0.00 73 4263.7
20260510043109 55 340 6.0 7.0 0.00 0.00 0.00 76 4263.7
20260510042607 56 335 6.0 7.0 0.00 0.00 0.00 76 4263.2
20260510042103 56 342 6.0 6.0 0.00 0.00 0.00 76 4263.4
20260510041600 58 334 7.0 8.0 0.00 0.00 0.00 74 4263.3
20260510041057 59 330 8.0 9.0 0.00 0.00 0.00 73 4263.1
20260510040554 59 328 10.0 10.0 0.00 0.00 0.00 73 4263.1
20260510040050 59 322 11.0 11.0 0.00 0.09 0.09 74 4263.0
20260510035546 58 332 9.0 9.0 0.00 0.09 0.09 77 4262.8
20260510035046 57 309 6.0 8.0 0.00 0.09 0.09 79 4262.8
20260510034544 57 305 5.0 6.0 0.00 0.09 0.09 78 4262.8
20260510034041 57 284 5.0 7.0 0.00 0.09 0.09 79 4262.7
20260510033537 58 283 3.0 3.0 0.00 0.09 0.09 78 4262.5
20260510033035 59 236 5.0 7.0 0.00 0.09 0.09 77 4262.3
20260510032531 58 250 4.0 5.0 0.00 0.09 0.09 78 4262.0
20260510032026 57 240 4.0 6.0 0.00 0.09 0.09 79 4262.1
20260510031522 57 228 4.0 5.0 0.00 0.09 0.09 79 4262.0
20260510031018 57 240 4.0 5.0 0.00 0.09 0.09 79 4261.8
20260510030514 58 245 3.0 3.0 0.00 0.09 0.09 79 4261.8
20260510030011 58 228 4.0 5.0 0.00 0.09 0.09 78 4261.4
20260510025508 58 210 5.0 6.0 0.00 0.09 0.09 78 4261.4
20260510025006 58 246 5.0 7.0 0.00 0.09 0.09 78 4261.6
20260510024502 58 219 7.0 9.0 0.00 0.09 0.09 78 4261.3
20260510023958 58 228 4.0 6.0 0.00 0.09 0.09 78 4261.0
20260510023454 57 215 4.0 5.0 0.00 0.09 0.09 78 4261.2
20260510022951 57 216 5.0 5.0 0.00 0.09 0.09 78 4261.2
20260510022451 58 203 4.0 6.0 0.00 0.09 0.09 77 4261.1
20260510021950 58 218 5.0 6.0 0.00 0.09 0.09 77 4261.3
20260510021448 58 212 4.0 5.0 0.00 0.09 0.09 76 4261.1
20260510020944 59 219 4.0 5.0 0.00 0.09 0.09 76 4261.1
20260510020439 59 223 5.0 7.0 0.00 0.09 0.09 75 4261.0
20260510015935 59 222 5.0 6.0 0.00 0.09 0.09 75 4260.9
20260510015431 59 234 3.0 3.0 0.00 0.09 0.09 75 4260.7
20260510014926 59 213 5.0 6.0 0.00 0.09 0.09 75 4260.8
20260510014424 59 221 5.0 6.0 0.00 0.09 0.09 74 4260.6
20260510013920 60 213 5.0 7.0 0.00 0.09 0.09 73 4260.6
20260510013415 60 222 4.0 5.0 0.00 0.09 0.09 72 4260.6
20260510012910 60 225 4.0 5.0 0.00 0.09 0.09 73 4260.4
20260510012406 60 237 3.0 3.0 0.00 0.09 0.09 72 4260.6
20260510011900 60 205 5.0 6.0 0.00 0.09 0.09 71 4260.4
20260510011356 60 234 4.0 5.0 0.00 0.09 0.09 72 4260.5
20260510010852 60 254 6.0 7.0 0.00 0.09 0.09 72 4260.5
20260510010350 60 227 4.0 5.0 0.00 0.09 0.09 75 4260.4
20260510005846 60 264 2.0 2.0 0.00 0.09 0.09 75 4260.3
20260510005342 61 224 5.0 6.0 0.00 0.09 0.09 75 4260.4
20260510004840 61 220 6.0 7.0 0.00 0.09 0.09 75 4260.5
20260510004338 62 234 9.0 15.0 0.00 0.09 0.09 73 4260.4
20260510003835 62 243 7.0 8.0 0.00 0.09 0.09 71 4260.5
20260510003332 62 236 4.0 6.0 0.00 0.09 0.09 72 4260.2
20260510002830 63 241 5.0 6.0 0.00 0.09 0.09 72 4260.0
20260510002328 62 239 6.0 7.0 0.00 0.09 0.09 71 4259.9
20260510001825 63 233 4.0 5.0 0.00 0.09 0.09 71 4260.0
20260510001323 63 231 6.0 9.0 0.00 0.09 0.09 70 4259.9
20260510000818 63 261 9.0 10.0 0.00 0.09 0.09 70 4259.8
20260510000318 63 237 11.0 13.0 0.00 0.09 0.09 68 4259.7
20260509235813 63 223 6.0 7.0 0.00 0.09 0.09 68 4259.7
20260509235309 64 224 7.0 8.0 0.00 0.09 0.09 67 4259.7
20260509234805 64 255 7.0 9.0 0.00 0.09 0.09 67 4259.6
20260509234302 64 229 4.0 6.0 0.00 0.09 0.09 68 4259.6
20260509233800 64 229 9.0 9.0 0.00 0.09 0.09 66 4259.7
20260509233258 64 244 8.0 9.0 0.00 0.09 0.09 66 4259.7
20260509232753 64 245 7.0 8.0 0.00 0.09 0.09 65 4259.7
20260509232251 64 232 12.0 15.0 0.00 0.09 0.09 66 4259.7
20260509231747 64 243 5.0 5.0 0.00 0.09 0.09 68 4259.8
20260509231244 64 224 11.0 14.0 0.00 0.09 0.09 67 4259.9
20260509230742 63 240 9.0 10.0 0.00 0.09 0.09 69 4259.8
20260509230238 63 227 10.0 14.0 0.00 0.09 0.09 69 4259.9
20260509225734 63 246 10.0 13.0 0.00 0.09 0.09 68 4259.9